Temp
42 44 40 38 38 38 35 38 31 38 38 45 48 49 50 52 54 54 55 56 55 53 53 53 50 48 47 45 45 45 43 41 39 39 39 39 39 39 39 39 39 39 38 37
37 44 44 37 40 41 40 39 39 40 39 50 52 53 53 55 55 54 55 56 56 55 55 53 50 47 46 44 43 44 41 39 38 38 38 37 36 35 35 35 34 37 35 32
30 39 39 32 39 41 42 44 42 34 43 50 49 52 53 54 55 54 52 53 52 52 52 52 50 48 45 45 44 41 38 38 36 36 34 33 33 32 33 33 32 30 29 28
29 32 23 39 49 49 45 47 48 49 50 52 52 53 57 56 50 50 50 50 48 47 46 47 48 48 45 45 43 40 36 35 36 35 33 33 32 32 32 32 30 28 27 26
28 28 34 40 45 43 41 41 50 48 50 52 51 50 46 50 50 47 43 37 40 42 44 44 44 43 43 42 40 36 34 35 34 33 33 32 32 31 31 30 29 27 26 24
29 26 23 36 48 53 49 34 50 48 47 47 47 32 32 46 46 43 40 36 34 36 41 42 40 40 37 35 35 34 34 34 34 34 33 32 31 30 30 29 28 28 26 24
28 27 30 45 50 52 31 36 50 50 49 48 43 41 42 44 42 42 38 40 38 35 33 35 41 38 35 33 33 33 33 33 33 34 32 32 31 30 29 29 28 27 26 25
30 27 24 48 47 38 43 47 48 49 48 43 40 36 36 34 37 41 41 42 40 36 34 34 37 37 34 34 33 33 33 32 32 32 32 31 30 30 29 28 26 26 25 23
33 28 42 45 43 47 48 49 50 48 48 45 38 33 33 33 34 36 41 43 44 39 35 37 38 37 34 33 33 33 32 31 30 30 30 30 29 28 28 28 26 25 24 22
31 38 43 46 50 48 47 45 51 53 49 44 34 34 32 32 33 36 39 41 43 37 34 35 35 36 35 33 33 32 30 29 29 29 29 29 29 29 28 27 26 26 25 23
29 35 38 43 42 46 47 48 48 49 49 42 39 36 35 35 37 38 40 43 44 38 35 34 35 35 34 33 33 31 30 29 29 29 29 28 29 29 29 29 29 27 26 25
27 38 35 37 42 46 41 44 49 49 45 45 45 41 41 38 40 41 41 44 43 41 38 35 34 33 34 34 33 31 29 29 29 29 28 28 28 27 31 31 32 34 32 29
38 44 43 43 47 48 43 43 49 52 50 45 46 47 46 41 41 41 44 44 42 41 38 35 32 32 32 32 32 31 29 29 29 29 28 27 25 24 23 27 30 32 31 31
45 43 39 43 43 47 45 48 51 54 51 50 49 49 47 46 44 44 43 44 43 42 37 34 32 30 31 32 32 31 30 30 29 28 28 27 24 23 23 22 21 24 28 28
43 44 43 45 46 46 50 46 45 48 48 48 49 47 47 46 42 43 44 45 46 40 36 34 33 32 32 32 32 31 31 29 28 29 28 28 26 25 24 22 21 21 22 24
44 44 45 45 46 48 49 48 46 44 44 39 42 44 45 46 45 43 43 41 37 34 33 31 31 32 33 32 32 32 30 29 29 29 28 27 26 25 24 23 21 20 20 20
37 36 40 41 44 45 47 48 48 46 43 43 43 43 45 42 39 38 35 34 33 32 31 31 30 33 33 33 32 31 31 30 30 29 28 27 26 25 24 23 22 21 20 20
47 44 45 43 42 41 42 44 44 44 43 44 39 35 34 35 34 30 30 31 30 28 29 31 32 32 32 32 32 31 30 29 29 28 28 27 27 26 25 24 23 21 20 19
44 43 41 41 39 39 37 36 35 35 32 32 32 30 29 32 33 32 32 31 30 30 30 32 31 31 31 31 30 30 29 28 28 28 28 24 25 25 21 20 21 22 21 19
37 36 35 34 33 31 31 32 33 31 34 30 33 33 33 33 33 32 32 29 29 29 32 31 31 31 31 30 30 29 28 27 27 26 24 25 21 19 20 18 19 22 20 18
31 32 31 30 30 32 31 33 33 33 34 34 31 33 33 33 33 32 30 29 30 32 32 31 31 31 31 30 29 27 26 26 25 25 23 20 20 21 19 18 18 19 20 18
33 31 30 31 31 32 33 34 34 33 32 32 33 33 33 31 32 31 29 32 32 32 31 31 31 31 31 31 29 27 26 25 25 23 21 21 20 20 23 23 19 20 21 20
32 32 32 32 31 30 31 31 32 31 32 32 33 33 32 32 32 30 29 32 32 31 31 30 31 30 30 30 29 29 25 23 22 22 24 21 22 21 24 26 25 20 23 24
32 33 32 32 31 32 31 31 32 31 31 31 32 32 32 30 30 32 33 32 32 31 30 30 31 31 30 30 30 29 29 25 23 22 26 22 24 22 21 21 21 23 21 20
34 33 33 32 33 33 33 33 32 31 31 31 31 32 32 31 28 27 32 32 32 31 30 31 31 31 31 30 30 31 30 29 27 23 24 27 26 26 25 25 25 25 25 24
33 32 32 34 33 33 32 33 31 30 31 29 29 31 32 30 28 27 32 32 31 31 32 32 31 31 31 30 31 31 30 30 29 25 25 27 28 29 28 28 27 27 27 24
34 33 33 33 31 31 32 32 31 31 30 31 30 32 32 32 32 30 31 30 30 31 32 31 31 31 31 31 30 31 30 30 30 29 29 28 24 25 25 26 27 26 25 24
MSLP
1008.81 1009.13 1009.50 1009.74 1010.15 1010.37 1010.74 1010.61 1011.01 1009.82 1009.93 1008.61 1008.54 1008.36 1008.44 1008.29 1008.29 1008.55 1008.44 1008.56 1008.87 1009.39 1010.01 1010.87 1011.76 1012.59 1013.35 1014.11 1014.75 1015.43 1016.52 1017.32 1018.18 1018.47 1019.22 1019.97 1020.64 1021.07 1021.68 1022.23 1022.58 1022.84 1023.01 1023.28
1009.10 1008.97 1008.98 1009.36 1009.38 1009.32 1009.79 1009.55 1009.79 1009.48 1009.03 1007.80 1007.88 1007.69 1007.68 1007.54 1007.72 1007.85 1007.95 1008.21 1008.52 1009.08 1009.69 1010.65 1011.41 1012.36 1012.93 1013.67 1014.47 1015.22 1016.04 1016.84 1017.53 1018.19 1019.68 1020.23 1020.89 1021.39 1021.86 1022.50 1022.61 1022.79 1023.32 1023.60
1009.10 1008.80 1009.09 1009.01 1007.21 1007.96 1007.82 1008.09 1008.17 1008.34 1007.24 1006.71 1007.03 1006.85 1006.79 1006.90 1007.05 1007.47 1008.16 1008.61 1009.30 1010.01 1010.18 1010.53 1011.18 1011.93 1012.75 1013.42 1014.44 1015.10 1016.16 1017.25 1017.89 1018.64 1019.47 1020.25 1020.79 1021.44 1021.98 1022.50 1022.93 1023.12 1023.77 1023.93
1009.21 1009.15 1008.42 1006.48 1006.07 1005.84 1006.46 1006.33 1006.35 1006.33 1005.97 1005.98 1005.76 1005.74 1005.73 1006.41 1007.16 1007.98 1008.81 1009.30 1009.95 1010.45 1011.13 1011.27 1011.38 1011.67 1012.27 1013.34 1014.22 1015.24 1016.27 1017.15 1017.86 1018.62 1019.45 1020.11 1020.39 1021.50 1021.99 1022.54 1023.01 1023.67 1024.08 1024.36
1008.66 1008.18 1007.16 1006.16 1004.75 1004.99 1005.08 1005.16 1005.31 1004.66 1005.24 1005.13 1005.28 1005.69 1006.87 1007.07 1007.16 1007.94 1009.18 1010.21 1010.63 1010.86 1011.20 1011.53 1011.65 1011.74 1012.28 1013.35 1014.23 1015.28 1016.18 1016.82 1017.81 1018.46 1019.26 1020.09 1020.80 1021.46 1022.11 1022.69 1023.40 1023.93 1024.44 1024.68
1008.51 1007.56 1006.67 1004.85 1003.59 1004.44 1004.76 1004.98 1003.39 1004.16 1004.57 1005.07 1005.54 1006.82 1007.89 1008.01 1008.22 1008.93 1009.32 1010.01 1011.10 1011.45 1011.68 1011.75 1012.13 1012.32 1012.99 1013.72 1014.39 1015.21 1015.88 1016.39 1017.25 1018.06 1018.89 1019.71 1020.41 1021.27 1022.01 1022.63 1023.24 1023.71 1024.89 1025.18
1007.83 1006.96 1006.02 1003.95 1003.66 1003.64 1004.59 1003.56 1003.22 1003.58 1004.11 1004.88 1006.09 1006.68 1007.43 1008.31 1008.94 1009.31 1009.81 1010.28 1011.05 1011.78 1012.16 1012.60 1012.74 1013.22 1014.09 1014.61 1014.99 1015.46 1016.21 1016.85 1017.60 1018.18 1018.78 1019.49 1020.18 1021.03 1021.83 1022.57 1023.27 1023.95 1024.52 1025.36
1007.64 1006.79 1005.49 1003.48 1003.76 1004.13 1003.53 1003.22 1003.03 1003.42 1004.08 1005.06 1006.10 1007.40 1008.34 1008.93 1009.35 1009.76 1010.06 1010.46 1010.90 1011.58 1012.29 1012.56 1012.97 1013.47 1014.20 1014.86 1015.29 1015.80 1016.37 1017.02 1017.73 1018.37 1019.02 1019.68 1020.32 1020.84 1021.54 1022.39 1023.22 1024.01 1024.62 1025.40
1007.73 1005.53 1004.58 1003.67 1003.96 1003.70 1003.34 1003.18 1002.87 1003.17 1003.65 1004.70 1006.53 1007.67 1008.78 1009.53 1009.70 1010.02 1010.25 1010.20 1010.27 1011.06 1012.03 1012.78 1013.05 1013.47 1014.02 1014.60 1015.20 1015.75 1016.35 1016.97 1017.54 1018.33 1018.88 1019.51 1020.24 1020.89 1021.48 1022.16 1022.81 1023.64 1024.52 1025.20
1007.53 1005.76 1005.14 1004.12 1003.80 1003.64 1003.76 1003.52 1002.71 1002.63 1003.17 1004.14 1005.99 1007.48 1008.48 1009.09 1009.37 1009.52 1009.70 1010.00 1010.05 1010.66 1011.61 1012.34 1012.97 1013.50 1013.93 1014.54 1015.10 1015.70 1016.35 1016.98 1017.55 1018.14 1018.94 1019.47 1020.10 1020.83 1021.33 1021.78 1022.51 1023.19 1024.12 1024.69
1008.25 1007.52 1006.26 1004.68 1005.02 1004.82 1004.15 1003.26 1002.93 1003.02 1003.47 1003.63 1005.00 1006.39 1007.05 1007.98 1008.41 1008.69 1008.84 1009.38 1009.67 1010.31 1011.12 1011.97 1012.66 1013.44 1014.02 1014.61 1015.10 1015.70 1016.31 1016.98 1017.48 1018.08 1018.74 1019.37 1020.01 1020.60 1021.06 1021.52 1021.93 1022.56 1023.25 1023.76
1007.15 1007.05 1007.37 1006.08 1005.35 1005.16 1004.51 1003.89 1003.10 1003.75 1002.64 1003.07 1003.73 1004.65 1006.01 1006.74 1007.26 1007.57 1008.01 1008.46 1009.06 1009.75 1010.64 1011.60 1012.46 1013.28 1014.02 1014.52 1015.03 1015.55 1016.12 1016.71 1017.30 1017.94 1018.61 1019.26 1019.90 1020.60 1021.14 1021.48 1021.84 1022.15 1022.44 1022.89
1005.88 1005.56 1005.67 1005.06 1004.65 1004.19 1003.95 1003.13 1002.53 1002.05 1001.41 1002.30 1002.54 1003.45 1004.74 1005.59 1006.20 1006.47 1007.07 1007.74 1008.41 1009.13 1010.16 1011.29 1012.33 1013.14 1013.83 1014.36 1014.83 1015.35 1015.74 1016.39 1016.97 1017.62 1018.42 1019.04 1019.79 1020.39 1021.02 1021.69 1021.82 1022.02 1022.24 1022.53
1004.97 1005.06 1004.62 1004.10 1003.56 1003.19 1003.79 1002.66 1001.52 1000.36 1000.58 1001.06 1001.96 1002.74 1003.70 1004.63 1005.23 1005.88 1006.50 1007.05 1007.86 1008.77 1009.99 1011.04 1012.07 1012.74 1013.40 1014.15 1014.59 1015.09 1015.62 1016.22 1016.78 1017.29 1018.08 1018.89 1019.70 1020.36 1020.85 1021.44 1021.93 1022.38 1022.66 1022.77
1003.93 1003.91 1003.34 1003.08 1003.50 1002.74 1002.13 1001.96 1002.09 1000.78 1000.66 1001.16 1001.75 1002.63 1003.39 1004.13 1004.74 1005.46 1006.06 1006.65 1007.36 1008.59 1009.74 1010.62 1011.51 1012.36 1013.04 1013.75 1014.25 1014.78 1015.37 1016.07 1016.68 1017.20 1017.84 1018.57 1019.45 1020.21 1020.80 1021.47 1022.07 1022.47 1022.94 1023.32
1002.72 1002.78 1002.30 1002.40 1001.86 1001.25 1001.30 1000.73 1000.69 1000.79 1001.02 1001.43 1001.94 1002.69 1003.09 1003.65 1004.30 1005.12 1005.94 1006.56 1007.70 1008.82 1009.65 1010.41 1010.96 1011.79 1012.49 1013.35 1013.96 1014.50 1015.14 1015.74 1016.35 1016.97 1017.63 1018.31 1019.13 1019.88 1020.57 1021.21 1021.85 1022.40 1022.80 1023.19
1002.04 1002.06 1002.42 1001.66 1001.33 1000.89 1000.73 1000.34 1000.48 1000.67 1001.01 1001.32 1002.12 1002.46 1003.06 1003.75 1004.60 1005.44 1006.25 1006.83 1007.44 1008.42 1009.27 1010.02 1010.87 1011.61 1012.23 1012.99 1013.70 1014.28 1014.85 1015.53 1016.07 1016.79 1017.38 1018.03 1018.76 1019.47 1020.15 1020.79 1021.36 1021.97 1022.49 1022.93
1001.26 1001.65 1002.04 1001.58 1001.48 1001.04 1000.57 1000.60 1000.89 1000.96 1001.37 1001.75 1002.34 1002.65 1003.46 1004.34 1005.08 1006.05 1006.98 1007.73 1008.44 1009.21 1009.58 1010.02 1010.66 1011.42 1012.17 1012.88 1013.52 1014.08 1014.68 1015.33 1015.95 1016.56 1017.20 1017.85 1018.45 1019.07 1019.67 1020.25 1020.83 1021.52 1022.15 1022.71
1001.15 1001.45 1001.81 1001.95 1002.20 1002.50 1002.01 1001.61 1001.93 1002.11 1002.47 1002.12 1002.71 1003.67 1003.74 1004.35 1004.99 1006.00 1007.10 1007.91 1008.58 1009.23 1009.91 1010.30 1010.77 1011.46 1012.16 1012.81 1013.39 1013.99 1014.58 1015.21 1015.79 1016.37 1016.95 1017.56 1018.17 1018.68 1019.19 1019.71 1020.27 1020.91 1021.53 1022.25
1002.04 1002.16 1002.04 1002.46 1002.75 1002.94 1003.23 1003.61 1003.33 1003.04 1002.96 1003.05 1003.30 1004.00 1004.74 1005.14 1005.42 1006.21 1006.98 1007.60 1007.93 1008.59 1009.53 1010.29 1010.87 1011.48 1012.09 1012.72 1013.22 1013.86 1014.49 1015.09 1015.65 1016.19 1016.75 1017.31 1017.81 1018.30 1018.78 1019.23 1019.70 1020.33 1020.98 1021.63
1002.94 1003.25 1003.53 1003.69 1003.66 1003.67 1003.64 1003.51 1003.18 1003.13 1003.17 1003.57 1003.72 1004.04 1004.70 1005.35 1005.80 1006.35 1007.01 1007.56 1008.17 1008.59 1009.34 1010.19 1010.72 1011.27 1011.88 1012.52 1013.08 1013.70 1014.33 1014.93 1015.43 1015.94 1016.48 1017.00 1017.50 1017.95 1018.37 1018.78 1019.20 1019.71 1020.39 1020.98
1003.09 1003.10 1003.16 1003.28 1003.50 1003.51 1003.55 1003.56 1003.44 1003.37 1003.58 1003.77 1003.90 1004.39 1004.96 1005.57 1005.97 1006.60 1006.62 1006.99 1007.99 1008.56 1009.38 1010.02 1010.54 1011.04 1011.58 1012.19 1012.80 1013.43 1014.02 1014.57 1015.10 1015.61 1016.13 1016.61 1017.08 1017.51 1017.92 1018.31 1018.68 1019.10 1019.61 1020.21
1003.57 1003.67 1003.84 1003.99 1003.97 1003.90 1003.71 1003.66 1003.57 1003.63 1003.87 1003.95 1004.30 1004.74 1005.13 1005.50 1005.97 1006.25 1006.83 1007.33 1007.80 1008.49 1009.15 1009.68 1010.27 1010.85 1011.32 1011.89 1012.52 1013.02 1013.66 1014.17 1014.69 1015.13 1015.57 1016.07 1016.52 1016.92 1017.34 1017.66 1018.00 1018.46 1018.76 1019.24
1003.97 1003.99 1004.13 1003.97 1003.89 1003.77 1003.88 1004.06 1004.08 1004.17 1004.39 1004.52 1004.76 1004.99 1005.28 1005.64 1006.04 1006.16 1006.57 1007.10 1007.60 1008.28 1008.82 1009.32 1010.03 1010.57 1011.06 1011.63 1012.13 1012.63 1013.10 1013.71 1014.21 1014.59 1014.85 1015.33 1015.78 1016.18 1016.60 1016.97 1017.35 1017.59 1017.98 1018.38
1003.78 1003.95 1004.12 1004.15 1003.99 1003.88 1004.10 1004.33 1004.58 1004.77 1004.93 1005.05 1005.06 1005.23 1005.40 1005.57 1005.81 1006.30 1006.62 1007.02 1007.48 1008.05 1008.51 1009.11 1009.74 1010.27 1010.83 1011.29 1011.71 1012.19 1012.46 1012.95 1013.44 1013.92 1014.31 1014.65 1015.09 1015.49 1015.86 1016.17 1016.49 1016.88 1017.27 1017.64
1003.88 1003.90 1003.91 1003.89 1003.90 1003.95 1004.15 1004.36 1004.50 1004.66 1004.88 1005.12 1005.25 1005.35 1005.56 1005.69 1005.88 1006.13 1006.49 1006.88 1007.34 1007.78 1008.22 1008.82 1009.40 1009.92 1010.43 1010.86 1011.28 1011.69 1012.01 1012.40 1012.85 1013.30 1013.67 1014.05 1014.40 1014.72 1015.05 1015.36 1015.70 1016.05 1016.40 1016.79
1003.43 1003.43 1003.46 1003.54 1003.62 1003.74 1003.90 1003.96 1004.19 1004.47 1004.56 1004.70 1005.01 1005.22 1005.46 1005.67 1006.02 1006.31 1006.51 1006.88 1007.26 1007.67 1007.98 1008.50 1009.01 1009.48 1009.95 1010.41 1010.83 1011.20 1011.56 1011.91 1012.26 1012.69 1013.08 1013.44 1013.75 1014.04 1014.34 1014.63 1014.95 1015.29 1015.66 1016.09
Wind_Speed
10 8 7 7 6 13 8 8 10 18 8 16 10 11 12 11 10 11 11 8 7 8 7 11 11 9 10 10 11 12 10 9 7 8 10 9 8 8 8 7 5 6 4 6
9 11 10 6 14 12 15 15 14 15 17 16 12 7 9 12 9 11 10 8 8 8 9 10 12 11 12 12 12 10 9 8 9 12 9 8 8 8 7 5 6 8 6 9
9 10 6 8 23 18 18 14 15 14 20 15 11 13 14 14 11 7 9 7 9 9 5 7 9 12 12 13 10 9 9 9 11 11 10 10 9 8 7 6 6 10 8 9
5 5 14 10 11 17 19 19 13 16 19 17 15 14 16 8 9 11 9 9 7 6 6 4 2 3 8 10 11 11 10 11 11 11 10 10 10 8 8 8 9 8 9 8
5 9 4 4 14 12 11 18 18 21 9 8 3 5 7 4 9 10 9 5 5 4 3 3 4 5 9 11 11 11 12 12 11 11 12 12 10 9 8 9 8 6 7 9
4 6 12 15 20 12 7 10 19 4 8 7 2 0 5 6 7 7 8 8 7 2 2 5 3 6 7 6 10 11 12 12 12 12 13 12 11 11 8 8 8 7 7 6
11 10 5 14 3 2 9 13 9 9 12 12 8 6 9 9 6 6 5 7 7 5 4 2 5 7 6 4 5 6 7 9 10 11 12 12 12 10 9 9 9 7 7 7
11 13 22 5 2 12 9 4 2 6 6 6 10 8 7 6 6 7 6 7 8 6 5 4 4 6 7 7 7 9 10 10 9 9 8 9 11 10 10 10 9 8 7 7
9 4 6 4 4 6 5 11 11 6 7 15 13 7 9 7 6 5 5 5 8 9 7 4 5 5 7 7 9 10 10 10 10 10 9 9 10 10 9 9 8 7 6 6
8 8 16 12 14 7 6 5 9 9 8 16 12 13 10 9 8 7 5 6 3 11 9 8 6 5 5 9 9 10 10 10 10 10 10 9 8 8 7 8 8 8 8 7
12 13 17 8 11 12 14 4 4 13 7 13 14 12 9 8 8 7 7 6 6 9 8 8 8 7 7 8 10 9 9 9 10 9 10 9 8 7 7 7 8 8 8 8
10 14 12 18 17 10 9 15 10 22 5 9 10 13 10 9 9 9 8 6 6 7 9 9 9 9 8 9 10 10 10 9 9 8 8 8 8 5 10 9 12 15 15 12
17 14 11 20 18 7 13 19 24 16 8 11 9 11 11 8 9 9 8 7 8 9 9 11 10 9 8 9 9 10 10 10 9 9 8 9 8 8 8 8 11 12 15 15
17 12 15 14 10 2 17 18 15 3 7 9 9 9 9 8 9 10 9 8 8 10 12 11 10 9 8 9 9 9 9 12 9 8 8 8 8 8 7 8 7 6 11 12
16 10 15 14 10 14 16 9 13 8 6 6 7 8 6 7 9 11 8 8 11 11 11 12 10 9 10 10 9 9 9 8 8 8 8 7 9 8 7 7 6 6 5 7
12 10 17 17 12 11 11 9 3 3 5 5 8 7 8 8 7 9 8 10 11 9 10 9 10 9 11 10 9 8 9 12 10 8 8 8 8 8 7 7 7 7 6 7
3 5 13 6 8 8 8 7 6 7 7 8 9 9 8 8 7 8 7 6 8 10 11 11 10 10 10 9 10 7 7 9 11 7 8 8 8 8 8 7 7 7 7 7
12 11 11 4 5 8 7 2 4 7 4 5 7 7 8 9 10 9 9 10 10 8 6 10 12 10 9 9 9 8 8 7 8 8 7 8 8 8 8 8 8 8 7 7
2 6 7 8 6 4 6 8 6 4 3 6 7 5 5 7 12 12 11 11 11 9 6 9 11 10 10 10 9 7 7 8 7 7 7 7 7 6 6 6 6 8 8 8
6 6 8 7 6 6 4 3 3 3 3 3 8 8 7 6 10 11 10 8 8 6 11 10 11 10 10 11 11 7 8 7 7 7 6 6 5 5 5 7 6 8 8 8
6 5 4 5 5 5 3 4 3 1 2 5 5 7 7 7 10 10 9 7 5 11 10 13 9 7 8 9 8 7 7 8 7 7 6 5 5 5 5 5 5 7 8 8
5 5 6 6 5 6 7 5 3 0 3 4 5 6 8 8 8 6 3 7 7 13 8 8 7 10 9 13 6 8 7 7 6 5 5 6 5 5 5 6 6 6 7 8
4 4 4 4 3 1 2 4 3 1 0 3 5 6 7 6 7 7 6 5 7 10 7 7 10 12 13 9 7 7 7 6 6 5 6 5 6 6 6 7 7 6 6 7
1 1 1 2 0 2 3 2 3 4 3 4 4 4 7 6 3 2 4 9 12 13 8 8 10 14 12 7 8 6 8 7 6 5 6 7 7 6 5 6 6 6 6 6
3 3 3 4 4 1 3 4 4 3 3 3 4 3 3 2 4 4 5 7 13 10 8 11 12 13 8 8 8 8 7 8 7 5 6 8 7 7 7 7 7 7 7 7
5 4 4 6 2 3 4 4 3 3 4 2 1 2 1 2 3 4 6 8 9 9 7 8 8 9 8 7 8 7 6 6 7 5 5 6 7 8 8 8 8 8 7 7
3 3 2 1 2 2 2 3 4 5 4 4 4 4 3 4 5 4 6 7 6 7 6 7 7 9 8 8 8 7 7 6 7 6 6 6 5 6 7 7 7 7 6 7
Wind_Direction
240 228 174 182 178 196 192 212 196 247 241 260 251 208 228 226 231 236 238 232 190 173 152 152 148 145 142 147 147 146 146 148 147 142 151 154 149 146 158 159 116 75 121 97
251 249 232 191 220 223 217 221 230 253 259 256 250 243 252 258 232 223 220 215 201 170 166 143 154 164 165 166 166 165 160 154 143 146 149 138 142 152 134 142 188 180 104 102
238 231 258 258 230 220 226 229 209 220 236 253 247 239 243 250 218 193 79 90 89 88 85 158 168 175 181 176 165 158 145 147 149 156 149 146 141 144 160 133 112 95 96 103
230 151 227 235 232 238 226 240 233 230 242 248 244 244 234 209 127 106 105 105 94 86 84 73 107 237 167 164 161 162 153 157 166 155 154 154 152 153 140 136 125 133 124 119
213 194 295 291 235 216 203 234 235 237 245 238 244 82 15 82 138 141 139 131 124 121 121 83 83 84 132 149 159 151 165 167 164 159 153 151 156 148 141 132 132 116 125 125
204 209 224 227 249 261 269 273 244 121 249 234 204 167 230 155 120 121 135 142 155 131 60 97 92 103 104 129 150 166 169 165 159 158 158 159 153 150 142 134 131 126 124 125
238 239 257 253 215 202 217 248 224 215 246 250 212 203 158 142 129 133 140 138 137 144 113 96 84 115 103 102 157 134 133 140 151 158 159 158 148 147 141 140 133 133 130 135
234 236 244 242 244 216 241 281 141 177 158 106 130 123 119 123 140 149 165 176 156 147 161 145 92 127 138 158 143 143 145 147 150 152 154 155 151 147 142 140 144 152 145 138
230 227 271 309 303 332 294 238 225 195 164 144 142 161 161 172 180 196 205 199 173 160 153 173 150 149 152 156 153 150 150 154 150 150 152 153 147 148 147 152 155 157 167 151
341 323 273 265 275 291 291 309 264 226 173 149 156 167 172 167 176 176 197 228 165 138 153 161 162 162 148 154 152 152 152 151 150 149 150 149 149 158 157 161 162 165 178 174
300 289 329 349 342 331 300 249 334 319 241 156 151 172 162 172 178 182 185 212 186 161 157 162 150 143 147 153 154 155 152 153 155 155 157 152 155 165 171 170 173 174 186 176
257 255 228 266 282 293 312 301 219 219 145 152 161 159 165 177 184 175 186 195 164 153 152 152 142 142 155 161 165 159 159 159 162 157 157 154 155 152 176 179 209 195 187 169
255 265 253 272 264 272 307 300 279 253 167 170 164 158 173 171 180 178 176 179 166 161 141 143 141 149 157 168 169 171 167 164 159 155 158 158 144 143 135 127 139 143 142 148
273 294 276 293 258 207 270 282 293 143 156 146 160 157 163 174 164 173 178 178 151 141 142 146 149 155 158 171 173 170 164 164 162 157 158 159 153 147 141 139 138 138 138 141
254 253 260 272 247 274 256 229 278 227 150 133 132 148 158 181 157 181 171 164 153 137 147 148 151 162 159 169 172 170 158 160 157 155 157 153 152 153 151 150 151 147 141 140
230 234 268 260 222 237 256 285 286 192 160 156 143 143 143 133 140 160 156 140 137 154 154 153 149 157 155 163 173 158 155 157 160 159 161 154 154 156 160 165 163 168 171 164
135 328 309 298 260 251 260 255 211 188 172 154 170 161 144 130 114 122 116 120 131 146 153 147 146 149 150 160 166 163 156 158 159 157 160 159 160 166 169 171 173 173 176 172
240 195 240 248 315 271 257 241 120 120 121 154 168 145 140 144 149 134 127 119 104 99 123 138 144 144 152 162 161 154 154 156 156 161 159 164 170 172 173 175 176 172 175 174
354 36 51 59 44 34 17 27 34 82 122 121 118 149 138 138 142 140 143 139 142 142 155 145 143 152 160 160 144 145 148 152 158 159 165 161 169 173 169 171 169 172 169 167
47 39 31 20 41 36 14 336 351 71 110 105 124 131 151 143 143 144 153 160 159 146 149 153 152 159 163 157 145 149 154 156 159 160 161 166 163 169 174 178 168 169 162 171
43 35 27 14 6 5 352 334 324 248 178 175 157 146 159 142 157 143 142 139 145 140 147 154 158 157 161 159 152 153 157 165 162 165 166 165 167 173 176 175 169 159 166 173
14 26 26 24 18 6 1 346 332 111 158 124 115 129 143 148 144 151 142 146 146 150 150 160 159 161 163 164 155 162 165 166 166 158 163 169 171 176 175 178 174 177 167 175
33 27 18 4 6 18 15 14 27 68 157 137 167 170 168 162 161 149 152 144 149 156 156 155 160 167 163 171 168 167 164 166 169 167 172 171 174 174 185 185 186 178 184 175
143 30 342 306 203 80 67 43 62 70 84 98 130 140 149 143 119 86 124 152 157 158 159 157 171 172 163 174 178 186 176 177 177 175 174 179 181 178 182 180 180 189 186 177
237 180 216 258 255 220 136 136 107 95 102 117 121 130 135 169 144 190 149 164 163 164 155 165 176 175 173 180 181 196 179 177 183 173 174 184 185 187 189 189 193 192 193 191
222 212 211 218 219 148 179 175 174 177 161 160 142 157 202 147 126 134 151 157 164 165 159 170 177 177 178 179 183 185 180 177 180 178 174 185 190 196 196 196 194 195 192 185
254 224 202 206 222 180 185 184 166 187 197 170 174 170 169 138 141 146 145 153 158 168 161 165 172 176 177 179 187 191 188 184 182 183 187 187 182 185 185 186 189 184 178 178